Location: Recife
(8.0585°S, 34.8848°W)
Time: 10:01:38
(UTC-03:00)

Hubble Space Telescope - Pass Details

Date: 27 September 2021
Orbit: 535 x 538 km, 28.5° (Epoch: 16 October)

Event Time Altitude Azimuth Distance (km) Brightness Sun altitude
Exits shadow 04:06:39 10° 215° (SW) 1,796 3.1 -15.5°
Reaches altitude 10° 04:06:40 10° 215° (SW) 1,789 3.1 -15.5°
Maximum altitude 04:10:17 28° 154° (SSE) 1,010 2.5 -14.6°
Drops below altitude 10° 04:13:53 10° 94° (E) 1,781 4.9 -13.8°
Sets 04:16:21 0° 82° (E) 2,669 6.1 -13.1°
